This is the latest recevied weather packets stored in our database for station/object WP3OF-1. If no packets are shown the sender has not sent any weather packets the latest 10 day(s).
| Time | Temp. | Humidity | Pressure | Rain* | Wind** | Luminosity | Snow |
|---|---|---|---|---|---|---|---|
| 1777482152 | 29.44° C | 70% | 1015.1 hPa | 0 mm | - | - | - |
| 1777481849 | 28.89° C | 69% | 1015.2 hPa | 0 mm | - | - | - |
| 1777481546 | 28.33° C | 74% | 1015.4 hPa | 0 mm | - | - | - |
| 1777481243 | 28.33° C | 74% | 1015.4 hPa | 0 mm | - | - | - |
| 1777480940 | 28.33° C | 73% | 1015.4 hPa | 0 mm | - | - | - |
| 1777480636 | 28.89° C | 68% | 1015.4 hPa | 0 mm | - | - | - |
| 1777480328 | 28.89° C | 68% | 1015.5 hPa | 0 mm | - | - | - |
| 1777480023 | 28.89° C | 71% | 1015.3 hPa | 0 mm | - | - | - |
| 1777479721 | 29.44° C | 70% | 1015.5 hPa | 0 mm | - | - | - |
| 1777479418 | 28.89° C | 67% | 1015.4 hPa | 0 mm | - | - | - |
| 1777479114 | 28.89° C | 69% | 1015.7 hPa | 0 mm | - | - | - |
| 1777478811 | 28.33° C | 72% | 1015.7 hPa | 0 mm | - | - | - |
| 1777478507 | 28.89° C | 70% | 1015.8 hPa | 0 mm | - | - | - |
| 1777478204 | 28.33° C | 70% | 1015.7 hPa | 0 mm | - | - | - |
| 1777477900 | 28.89° C | 70% | 1015.6 hPa | 0 mm | - | - | - |
| 1777477596 | 28.89° C | 68% | 1015.8 hPa | 0 mm | - | - | - |
| 1777477292 | 28.89° C | 71% | 1015.8 hPa | 0 mm | - | - | - |
| 1777476989 | 28.33° C | 76% | 1015.6 hPa | 0 mm | - | - | - |
| 1777476688 | 28.89° C | 72% | 1015.8 hPa | 0 mm | - | - | - |
| 1777476383 | 28.89° C | 71% | 1015.6 hPa | 0 mm | - | - | - |
| 1777476080 | 29.44° C | 71% | 1015.6 hPa | 0 mm | - | - | - |
| 1777475775 | 28.89° C | 72% | 1015.8 hPa | 0 mm | - | - | - |
| 1777475472 | 28.89° C | 67% | 1015.8 hPa | 0 mm | - | - | - |
| 1777475168 | 28.89° C | 69% | 1015.8 hPa | 0 mm | - | - | - |
| 1777474864 | 28.33° C | 69% | 1015.6 hPa | 0 mm | - | - | - |
* Rain latest hour (hover to see other rain measurements)
** Current wind speed in m/s (hover to see current wind gust speed)